Weather in Alekseyevsk

Russia / Irkutsk Oblast     57°50′17″N   108°21′04″E
temp.,
°C
wind,
m/s
gust,
m/s
humid.,
%
clouds,
%
prec.,
mm/h
press.,
hPa
HPBL,
m
18 may, tue
tue1823:00+1n2344100 0.0 100989
02:00−2wnw114967 0.0 100910
05:00−3w115693 0.0 101010
08:00+2wnw36385 0.0 10091413
11:00+5wnw4723100 0.0 10072978
14:00+7nw4820100 0.0 10053467
17:00+7nnw5722100 0.0 10032766
20:00+4n35315 0.0 1003257
19 may, wed
wed1923:00−2ene114871 0.0 100410
02:00−3nw115081 0.0 100410
05:00−4nw115656 0.0 100510
08:00+1nw2646100 0.0 10061309
11:00+3nw4642100 0.1 10062005
14:00+5nw4634100 0.1 10062383
17:00+6nnw3529100 0.0 10062331
20:00+4nne224215 0.0 100746
20 may, thu
thu2023:00−2ne00573 0.0 100910
02:00−3ne11643 0.0 100910
05:00−3nne11682 0.0 101015
08:00+4ne35465 0.0 1010857
11:00+8ne34274 0.0 10091868
14:00+11ne34224 0.0 10092224
17:00+12ene44225 0.0 10092364
20:00+8ene363319 0.0 1010206
21 may, fri
fri2123:00+2ne225593 0.0 101238
02:000ne2663100 0.0 1011113
05:00+3ne41549100 0.0 1009552
08:00+6ne71435100 0.0 1008817
11:00+11ne71122100 0.0 10071235
14:00+13ene71018100 0.0 10051708
17:00+13ne6823100 0.0 10051924
20:00+11ne4931100 0.0 1006514
22 may, sat
sat2223:00+7nne51339100 0.0 1006511
02:00+4n41150100 0.0 1006358
05:00+3n3851100 0.0 1006297
08:00+6nne4740100 0.0 1006642
11:00+12nne5725100 0.0 10041902
14:00+14n5720100 0.0 10042879
17:00+14n5719100 0.0 10033155
20:00+11n2430100 0.0 100491